Location: Praha
(50.0830°N, 14.4670°E)
Time: 03:58:07
(UTC+02:00)

ISS - Pass Details

Date: 21 May 2021
Orbit: 417 x 422 km, 51.6° (Epoch: 13 June)

Event Time Altitude Azimuth Distance (km) Brightness Sun altitude
Rises 00:32:00 0° 286° (WNW) 2,370 0.4 -19.5°
Reaches altitude 10° 00:34:06 10° 285° (WNW) 1,505 -0.7 -19.5°
Enters shadow 00:37:08 65° 252° (WSW) 466 -3.7 -19.6°
